Погода в Красовке

Россия / Омская область     54°55′53″N   75°10′08″E
темп.,
°C
ветер,
м/с
пор.,
м/с
влажн.,
%
обл.,
%
осадки,
мм/ч
давл.,
гПа
погр.,
м
24 января, пн
пн2400:00−24зсз2210076 0.0 103917
03:00−25зсз2210077 0.0 104018
06:00−25зсз22100100 0.0 104019
09:00−25зсз2210090 0.0 104017
12:00−18зсз23965 0.0 104074
15:00−16з22945 0.0 104060
18:00−21зюз2210015 0.0 104012
21:00−23зюз2210065 0.0 103929
25 января, вт
вт2500:00−18юз3593100 0.0 103884
03:00−17юз3691100 0.0 1036106
06:00−18ююз3891100 0.0 1034116
09:00−16ююз4991100 0.0 1032186
12:00−13ююз51092100 0.0 1031274
15:00−12ююз41092100 0.0 1029342
18:00−11ююз4895100 0.4 1027332
21:00−11ююз4795100 0.8 1026316
26 января, ср
ср2600:00−11ююз3696100 1.3 1024242
03:00−11юз2396100 0.5 1024117
06:00−13зсз229869 0.8 102417
09:00−20ссз22100100 0.0 102512
12:00−16с239987 0.1 102783
15:00−14ссз24965 0.0 102887
18:00−21с2210053 0.0 10309
21:00−24ссз1110067 0.0 10329
27 января, чт
чт2700:00−25зсз1110089 0.0 10339
03:00−26з01100100 0.0 10349
06:00−26ю11100100 0.0 10359
09:00−26ююз22100100 0.0 103622
12:00−19ю24100100 0.0 103584
15:00−15ю349547 0.0 1034143
18:00−19ю369927 0.0 103461
21:00−20ю3610058 0.0 103474
28 января, пт
пт2800:00−20ю37996 0.0 103497
03:00−21ю379659 0.0 103391
06:00−21ю369770 0.0 103377
09:00−20ююв379685 0.0 103297
12:00−16ююв3791100 0.0 1032153
15:00−14ююв3790100 0.0 1031182
18:00−15юв3893100 0.0 1031107
21:00−16ююв389299 0.0 1031129